{"data":{"norad_id":42747,"intl_designator":"2017-031A","name":"GSAT-19","alt_names":[],"object_type":"PAYLOAD","status":"ACTIVE","operator":null,"country":"IND","launch_date":"2017-06-05","launch_site_code":"SRILR","launch_vehicle":null,"mission":null,"orbit_class":"UNKNOWN","rcs_meters":null,"size_class":null,"mass_kg":null,"dimensions":null,"purposes":["comms"],"wikipedia_slug":null,"has_3d_model":false,"image_url":null,"decayed_at":null,"tle_current":{"epoch":"2026-09-19T18:54:32.667840Z","epoch_age_seconds":87310,"freshness":"FRESH","line1":"1 42747U 17031A   26262.78787810  .00000121  00000+0  00000+0 0  9992","line2":"2 42747   0.0385  97.8157 0003593  21.8771 210.5329  1.00272445 34098","mean_motion":1.00272445,"eccentricity":0.0003593,"inclination_deg":0.0385,"raan_deg":97.8157,"arg_perigee_deg":21.8771,"mean_anomaly_deg":210.5329,"bstar":0,"rev_number":3409,"period_min":1436.0874515426,"perigee_km":35771.260218531,"apogee_km":35801.559661962,"semimajor_km":42164.546940247,"source":"CELESTRAK","updated_at":"2026-09-20T09:00:35.254382Z"}}}